Weather History for Vineland (AU8) ON, Ontario

Change the Weather History Date:

Wednesday, August 7, 2013

  Actual Average Record
Temperature  
Mean Temperature 74 °F -  
Max Temperature 81 °F - - ()
Min Temperature 67 °F - - ()
Cooling Degree Days 9    
Growing Degree Days 24 (Base 50)    
Moisture  
Dew Point 63 °F    
Average Humidity 70    
Maximum Humidity 79    
Minimum Humidity 53    
Precipitation  
Precipitation 0.00 in - - ()
Sea Level Pressure  
Sea Level Pressure 29.86 in    
Wind  
Wind Speed 7 mph ()    
Max Wind Speed 15 mph    
Max Gust Speed 24 mph    
T = Trace of Precipitation, MM = Missing Value Source: Averaged Metar Reports

Daily Weather History Graph

Daily Weather History Graph

Search for Another Location

Airport:

Trip Planner

Search our weather history database for the weather conditions in past years. The results will help you decide how hot, cold, wet, or windy it might be!

Date:

Astronomy

Aug. 07, 2013 Rise Set
Actual Time 6:14 AM EDT 8:31 PM EDT
Civil Twilight 5:42 AM EDT 9:02 PM EDT
Nautical Twilight 5:03 AM EDT 9:41 PM EDT
Astronomical Twilight 4:20 AM EDT 10:24 PM EDT
Moon 7:04 AM EDT (8/7) 8:33 PM EDT (8/7)
Length of Visible Light 15h 19m
Length of Day
14h 16m
New Moon, 1% of the Moon is Illuminated
Aug 7
New Moon
Aug 14
First Quarter
Aug 20
Full
Aug 28
Last Quarter
Sep 5
New

Hourly Weather History & Observations

Time (EDT) Temp. Heat Index Dew Point Humidity Pressure Visibility Wind Dir Wind Speed Gust Speed Precip Events Conditions
12:00 AM 69.1 °F - 62.1 °F 78% 29.91 in - South 3.5 mph - N/A   Unknown
1:00 AM 69.4 °F - 60.4 °F 73% 29.91 in - SSE 3.5 mph - N/A   Unknown
2:00 AM 68 °F - 59 °F 66% 29.91 in - SSE 2.3 mph - -  
2:00 AM 68.2 °F - 59.2 °F 73% 29.91 in - SSE 2.3 mph - N/A   Unknown
3:00 AM 69.1 °F - 61.2 °F 76% 29.90 in - South 3.5 mph - N/A   Unknown
4:00 AM 69.6 °F - 61.7 °F 76% 29.89 in - SSW 10.4 mph - N/A   Unknown
5:00 AM 69.1 °F - 61.7 °F 77% 29.89 in - South 6.9 mph - N/A   Unknown
6:00 AM 68.4 °F - 61.5 °F 79% 29.88 in - SSW 9.2 mph - N/A   Unknown
7:00 AM 68.9 °F - 61.7 °F 78% 29.89 in - South 8.1 mph - N/A   Unknown
8:00 AM 70 °F - 62 °F 70% 29.90 in - South 8.1 mph - -  
8:00 AM 69.8 °F - 62.2 °F 77% 29.90 in - South 8.1 mph - N/A   Unknown
9:00 AM 72.5 °F - 62.8 °F 71% 29.88 in - South 11.5 mph 17.3 mph N/A   Unknown
10:00 AM 74.5 °F - 63.0 °F 67% 29.88 in - SSW 9.2 mph - N/A   Unknown
11:00 AM 75.0 °F - 63.7 °F 68% 29.88 in - SW 11.5 mph - N/A   Unknown
12:00 PM 76.5 °F - 63.0 °F 63% 29.86 in - SSW 9.2 mph - N/A   Unknown
1:00 PM 77.9 °F - 64.0 °F 62% 29.85 in - SSW 9.2 mph - N/A   Unknown
2:00 PM 78 °F - 64 °F 53% 29.84 in - SW 12.7 mph - -  
2:00 PM 78.1 °F - 63.9 °F 61% 29.84 in - SW 12.7 mph 23.0 mph N/A   Unknown
3:00 PM 78.4 °F - 64.9 °F 63% 29.83 in - SW 10.4 mph 18.4 mph N/A   Unknown
4:00 PM 77.5 °F - 65.7 °F 67% 29.81 in - SW 12.7 mph - N/A   Unknown
5:00 PM 79.3 °F - 65.8 °F 63% 29.80 in - WSW 15.0 mph 24.2 mph N/A   Unknown
6:00 PM 80.1 °F 82.2 °F 66.4 °F 63% 29.79 in - SW 15.0 mph 23.0 mph N/A   Unknown
7:00 PM 78.6 °F - 64.9 °F 63% 29.79 in - WSW 15.0 mph 21.9 mph N/A   Unknown
8:00 PM 76 °F - 66 °F 63% 29.80 in - SW 9.2 mph - -  
8:00 PM 76.1 °F - 65.8 °F 70% 29.80 in - SW 9.2 mph - N/A   Unknown
9:00 PM 73.9 °F - 65.8 °F 76% 29.82 in - WSW 6.9 mph - N/A   Unknown
10:00 PM 73.2 °F - 65.8 °F 78% 29.84 in - SW 8.1 mph - N/A   Unknown
11:00 PM 72.5 °F - 65.1 °F 78% 29.84 in - WSW 10.4 mph - N/A   Unknown